GW0701 Weather Reports


Display with metric or nautical units.
time (UTC)temp
F
wind
direction
speed
MPH
gust
MPH
rain 1hr
in
rain 24hr
in
rain mn
in
humidity
%
barometer
mb
20260905101858 73 80 0.0 0.0 0.00 0.00 0.00 98 1013.1
20260905101356 73 80 0.0 0.0 0.00 0.00 0.00 98 1012.8
20260905100851 73 80 0.0 0.0 0.00 0.00 0.00 98 1013.2
20260905100347 73 80 0.0 0.0 0.00 0.00 0.00 98 1013.0
20260905095846 74 80 0.0 0.0 0.00 0.00 0.00 98 1013.2
20260905095341 73 80 0.0 0.0 0.00 0.00 0.00 98 1013.0
20260905094836 73 78 1.0 1.0 0.00 0.00 0.00 97 1013.1
20260905094331 74 77 0.0 0.0 0.00 0.00 0.00 97 1012.9
20260905093830 74 341 0.0 1.0 0.00 0.00 0.00 97 1013.1
20260905093326 74 282 1.0 1.0 0.00 0.00 0.00 96 1013.0
20260905092822 74 245 0.0 0.0 0.00 0.00 0.00 96 1013.0
20260905092321 74 212 0.0 0.0 0.00 0.00 0.00 96 1012.8
20260905091817 74 211 0.0 0.0 0.00 0.00 0.00 96 1013.1
20260905091316 75 227 0.0 0.0 0.00 0.00 0.00 96 1012.8
20260905090815 75 268 1.0 1.0 0.00 0.00 0.00 95 1012.9
20260905090311 75 246 0.0 1.0 0.00 0.00 0.00 95 1013.1
20260905085810 74 245 0.0 0.0 0.00 0.00 0.00 95 1013.1
20260905085306 74 246 0.0 1.0 0.00 0.00 0.00 96 1013.2
20260905084800 74 224 0.0 0.0 0.00 0.00 0.00 96 1013.1
20260905084300 75 242 1.0 1.0 0.00 0.00 0.00 95 1013.1
20260905083755 75 249 0.0 0.0 0.00 0.00 0.00 96 1013.0
20260905083250 75 147 0.0 1.0 0.00 0.00 0.00 95 1013.1
20260905082746 75 220 0.0 0.0 0.00 0.00 0.00 95 1012.9
20260905082242 75 220 0.0 0.0 0.00 0.00 0.00 95 1013.0
20260905081741 75 233 0.0 0.0 0.00 0.00 0.00 94 1013.2
20260905081237 75 233 0.0 0.0 0.00 0.00 0.00 93 1013.3
20260905080731 76 201 0.0 0.0 0.00 0.00 0.00 93 1013.2
20260905080231 75 200 0.0 0.0 0.00 0.00 0.00 93 1013.4
20260905075730 76 200 0.0 0.0 0.00 0.00 0.00 93 1013.4
20260905075229 75 200 0.0 0.0 0.00 0.00 0.00 93 1013.4
20260905074728 75 188 0.0 0.0 0.00 0.00 0.00 93 1013.3
20260905074224 76 205 0.0 1.0 0.00 0.00 0.00 93 1013.4
20260905073719 76 207 0.0 0.0 0.00 0.00 0.00 92 1013.5
20260905073215 76 207 0.0 0.0 0.00 0.00 0.00 91 1013.5
20260905072714 76 209 0.0 0.0 0.00 0.00 0.00 91 1013.6
20260905072210 77 209 0.0 0.0 0.00 0.00 0.00 91 1013.3
20260905071706 77 209 0.0 0.0 0.00 0.00 0.00 91 1013.4
20260905071202 77 209 0.0 0.0 0.00 0.00 0.00 89 1013.5
20260905070656 77 209 0.0 0.0 0.00 0.00 0.00 87 1013.6
20260905070153 77 209 0.0 0.0 0.00 0.00 0.00 88 1013.6
20260905065651 77 209 0.0 0.0 0.00 0.00 0.00 88 1013.7
20260905065145 77 209 0.0 0.0 0.00 0.00 0.00 89 1013.6
20260905064641 76 209 0.0 0.0 0.00 0.00 0.00 90 1013.5
20260905064137 76 209 0.0 0.0 0.00 0.00 0.00 91 1013.2
20260905063635 76 208 1.0 1.0 0.00 0.00 0.00 91 1013.2
20260905063132 77 210 1.0 1.0 0.00 0.00 0.00 91 1013.1
20260905062627 77 205 1.0 1.0 0.00 0.00 0.00 90 1013.3
20260905062126 77 203 1.0 1.0 0.00 0.00 0.00 90 1013.2
20260905061621 77 203 1.0 1.0 0.00 0.00 0.00 90 1013.3
20260905061120 77 203 1.0 1.0 0.00 0.00 0.00 90 1013.3
20260905060616 77 203 0.0 0.0 0.00 0.00 0.00 90 1013.4
20260905060113 77 203 0.0 0.0 0.00 0.00 0.00 89 1013.4
20260905055611 77 203 0.0 0.0 0.00 0.00 0.00 89 1013.2
20260905055106 77 203 1.0 1.0 0.00 0.00 0.00 89 1013.4
20260905054602 77 203 0.0 0.0 0.00 0.00 0.00 89 1013.3
20260905054057 77 202 0.0 0.0 0.00 0.00 0.00 90 1013.5
20260905053556 78 201 0.0 0.0 0.00 0.00 0.00 88 1013.4
20260905053052 78 205 1.0 1.0 0.00 0.00 0.00 87 1013.3
20260905052551 78 205 0.0 0.0 0.00 0.00 0.00 87 1013.2
20260905052046 78 205 0.0 0.0 0.00 0.00 0.00 88 1013.4
20260905051541 78 205 0.0 0.0 0.00 0.00 0.00 89 1013.3
20260905051038 79 205 0.0 0.0 0.00 0.00 0.00 88 1013.4
20260905050534 79 202 0.0 0.0 0.00 0.00 0.00 85 1013.3
20260905050031 80 214 0.0 0.0 0.00 0.00 0.00 84 1013.2
20260905045526 80 214 0.0 0.0 0.00 0.00 0.00 82 1013.3
20260905045021 80 214 0.0 0.0 0.00 0.00 0.00 82 1013.1
20260905044520 80 214 0.0 0.0 0.00 0.00 0.00 82 1013.0
20260905044015 80 214 0.0 0.0 0.00 0.00 0.00 81 1013.1
20260905043515 80 214 0.0 0.0 0.00 0.00 0.00 81 1013.2
20260905043010 80 214 0.0 0.0 0.00 0.00 0.00 82 1013.3
20260905042508 80 214 0.0 0.0 0.00 0.00 0.00 84 1013.1
20260905042004 80 214 0.0 0.0 0.00 0.00 0.00 82 1013.1
20260905041459 80 214 0.0 0.0 0.00 0.00 0.00 82 1013.0
20260905040955 80 214 0.0 0.0 0.00 0.00 0.00 82 1012.8
20260905040454 80 214 0.0 0.0 0.00 0.00 0.00 81 1013.0
20260905035953 81 214 0.0 0.0 0.00 0.00 0.00 81 1012.9
20260905035448 80 214 0.0 0.0 0.00 0.00 0.00 82 1012.8
20260905034946 81 215 0.0 0.0 0.00 0.00 0.00 82 1012.9
20260905034441 81 218 1.0 1.0 0.00 0.00 0.00 82 1012.9
20260905033939 81 216 0.0 0.0 0.00 0.00 0.00 82 1013.0
20260905033439 81 216 0.0 0.0 0.00 0.00 0.00 82 1013.0
20260905032934 80 216 0.0 0.0 0.00 0.00 0.00 83 1013.0
20260905032430 81 218 0.0 0.0 0.00 0.00 0.00 84 1013.1
20260905031924 81 218 0.0 0.0 0.00 0.00 0.00 83 1013.0
20260905031420 81 218 0.0 0.0 0.00 0.00 0.00 83 1013.0
20260905030915 80 218 0.0 0.0 0.00 0.00 0.00 86 1013.0
20260905030411 80 218 0.0 0.0 0.00 0.00 0.00 87 1013.2
20260905025910 80 218 0.0 0.0 0.00 0.00 0.00 86 1013.1
20260905025405 80 218 0.0 0.0 0.00 0.00 0.00 86 1013.2
20260905024902 81 218 0.0 0.0 0.00 0.00 0.00 85 1013.1
20260905024356 81 218 0.0 0.0 0.00 0.00 0.00 85 1013.1
20260905023852 81 218 0.0 0.0 0.00 0.00 0.00 86 1013.1
20260905023347 82 218 0.0 0.0 0.00 0.00 0.00 84 1013.0
20260905022846 82 218 0.0 0.0 0.00 0.00 0.00 83 1012.8
20260905022341 82 218 0.0 0.0 0.00 0.00 0.00 81 1013.2
20260905021836 82 218 0.0 0.0 0.00 0.00 0.00 81 1012.8
20260905021331 82 218 0.0 0.0 0.00 0.00 0.00 80 1013.1
20260905020826 82 218 0.0 0.0 0.00 0.00 0.00 82 1012.9
20260905020321 82 218 0.0 0.0 0.00 0.00 0.00 84 1013.0
20260905015820 82 218 0.0 0.0 0.00 0.00 0.00 82 1012.9
20260905015314 82 218 0.0 0.0 0.00 0.00 0.00 82 1012.9
20260905014813 82 218 0.0 0.0 0.00 0.00 0.00 82 1012.9
20260905014309 82 218 0.0 0.0 0.00 0.00 0.00 82 1012.8
20260905013804 83 218 0.0 0.0 0.00 0.00 0.00 80 1012.8
20260905013300 83 218 0.0 0.0 0.00 0.00 0.00 79 1012.7
20260905012755 83 218 0.0 0.0 0.00 0.00 0.00 80 1012.6
20260905012251 83 218 0.0 0.0 0.00 0.00 0.00 80 1012.4
20260905011747 83 218 0.0 0.0 0.00 0.00 0.00 80 1012.2
20260905011243 83 218 0.0 0.0 0.00 0.00 0.00 80 1012.3
20260905010737 83 218 0.0 0.0 0.00 0.00 0.00 79 1012.4
20260905010232 83 218 0.0 0.0 0.00 0.00 0.00 78 1012.4
20260905005730 84 218 0.0 0.0 0.00 0.00 0.00 79 1012.4
20260905005225 84 218 0.0 0.0 0.00 0.00 0.00 76 1012.4
20260905004719 84 218 0.0 0.0 0.00 0.00 0.00 76 1012.2
20260905004214 85 218 0.0 0.0 0.00 0.00 0.00 77 1012.3
20260905003714 85 218 0.0 0.0 0.00 0.00 0.00 77 1012.1
20260905003210 86 218 1.0 1.0 0.00 0.00 0.00 78 1012.2
20260905002706 87 211 0.0 0.0 0.00 0.00 0.00 74 1011.9
20260905002205 87 211 0.0 0.0 0.00 0.00 0.00 74 1011.7
20260905001701 88 211 0.0 0.0 0.00 0.00 0.00 72 1011.9
20260905001200 89 211 0.0 0.0 0.00 0.00 0.00 71 1012.1
20260905000655 90 212 0.0 0.0 0.00 0.00 0.00 70 1012.2
20260905000151 90 212 0.0 0.0 0.00 0.00 0.00 68 1012.0
20260904235651 91 211 0.0 0.0 0.00 0.00 0.00 66 1011.9
20260904235151 92 217 1.0 1.0 0.00 0.00 0.00 63 1012.0
20260904234646 92 214 0.0 0.0 0.00 0.00 0.00 62 1012.1
20260904234141 92 214 0.0 1.0 0.00 0.00 0.00 62 1011.9
20260904233637 92 211 1.0 1.0 0.00 0.00 0.00 62 1011.6
20260904233133 93 223 0.0 1.0 0.00 0.00 0.00 60 1012.0
20260904232629 93 222 1.0 1.0 0.00 0.00 0.00 60 1011.9
20260904232125 93 219 2.0 2.0 0.00 0.00 0.00 60 1011.8
20260904231620 93 212 1.0 2.0 0.00 0.00 0.00 60 1011.8
20260904231115 93 235 1.0 2.0 0.00 0.00 0.00 59 1012.0
20260904230614 94 210 2.0 2.0 0.00 0.00 0.00 59 1011.8
20260904230110 94 231 1.0 1.0 0.00 0.00 0.00 59 1011.8
20260904225607 94 207 2.0 2.0 0.00 0.00 0.00 58 1012.1
20260904225103 95 234 1.0 1.0 0.00 0.00 0.00 59 1011.9
20260904224557 95 220 2.0 2.0 0.00 0.00 0.00 56 1011.8
20260904224052 95 204 2.0 2.0 0.00 0.00 0.00 56 1011.9
20260904223551 95 199 5.0 7.0 0.00 0.00 0.00 56 1012.0
20260904223047 95 220 2.0 2.0 0.00 0.00 0.00 54 1012.2
20260904222542 95 176 3.0 3.0 0.00 0.00 0.00 55 1012.0
20260904222038 95 212 1.0 2.0 0.00 0.00 0.00 54 1012.2
20260904221532 95 210 1.0 2.0 0.00 0.00 0.00 56 1012.3
20260904221027 96 179 5.0 6.0 0.00 0.00 0.00 54 1012.2
20260904220527 96 189 3.0 3.0 0.00 0.00 0.00 54 1012.0
20260904220023 96 204 2.0 2.0 0.00 0.00 0.00 53 1012.0
20260904215522 96 225 2.0 3.0 0.00 0.00 0.00 54 1012.2
20260904215018 97 195 4.0 6.0 0.00 0.00 0.00 52 1012.4
20260904214513 97 239 2.0 2.0 0.00 0.00 0.00 53 1012.4
20260904214009 97 180 4.0 5.0 0.00 0.00 0.00 53 1012.3
20260904213507 96 258 4.0 5.0 0.00 0.00 0.00 55 1012.4
20260904213004 96 251 4.0 6.0 0.00 0.00 0.00 53 1012.6
20260904212502 96 188 5.0 7.0 0.00 0.00 0.00 53 1012.5
20260904211958 96 185 4.0 7.0 0.00 0.00 0.00 53 1012.5
20260904211452 97 222 1.0 1.0 0.00 0.00 0.00 54 1012.5
20260904210948 96 213 3.0 3.0 0.00 0.00 0.00 53 1012.6
20260904210447 96 198 3.0 3.0 0.00 0.00 0.00 57 1012.8
20260904205943 96 236 1.0 1.0 0.00 0.00 0.00 55 1012.9
20260904205438 96 240 2.0 2.0 0.00 0.00 0.00 55 1012.7
20260904204935 96 191 5.0 6.0 0.00 0.00 0.00 54 1012.7
20260904204430 96 238 2.0 2.0 0.00 0.00 0.00 55 1012.8
20260904203927 96 245 2.0 2.0 0.00 0.00 0.00 56 1012.7
20260904203423 96 154 5.0 7.0 0.00 0.00 0.00 54 1012.8
20260904202919 96 253 4.0 6.0 0.00 0.00 0.00 53 1012.9
20260904202415 96 242 2.0 3.0 0.00 0.00 0.00 54 1012.8
20260904201910 97 257 3.0 3.0 0.00 0.00 0.00 54 1013.0
20260904201405 96 206 4.0 7.0 0.00 0.00 0.00 52 1013.3
20260904200901 96 230 2.0 2.0 0.00 0.00 0.00 54 1013.1
20260904200359 96 212 3.0 5.0 0.00 0.00 0.00 54 1013.2
20260904195854 96 208 3.0 3.0 0.00 0.00 0.00 54 1013.2
20260904195352 96 240 7.0 8.0 0.00 0.00 0.00 55 1013.2
20260904194847 96 219 3.0 5.0 0.00 0.00 0.00 54 1013.4
20260904194346 95 218 3.0 5.0 0.00 0.00 0.00 55 1013.6
20260904193842 97 232 2.0 2.0 0.00 0.00 0.00 54 1013.5
20260904193337 98 224 2.0 2.0 0.00 0.00 0.00 51 1013.6
20260904192832 96 234 2.0 2.0 0.00 0.00 0.00 54 1013.6
20260904192327 97 197 6.0 7.0 0.00 0.00 0.00 55 1013.6
20260904191824 97 247 1.0 1.0 0.00 0.00 0.00 55 1013.6
20260904191320 96 181 5.0 6.0 0.00 0.00 0.00 53 1013.9
20260904190817 96 178 6.0 7.0 0.00 0.00 0.00 56 1013.8
20260904190312 97 230 2.0 3.0 0.00 0.00 0.00 53 1013.9
20260904185808 97 197 3.0 3.0 0.00 0.00 0.00 54 1013.9
20260904185306 96 216 2.0 3.0 0.00 0.00 0.00 56 1014.1
20260904184803 96 254 4.0 7.0 0.00 0.00 0.00 54 1013.9
20260904184258 95 260 3.0 5.0 0.00 0.00 0.00 55 1014.1
20260904183753 95 221 2.0 2.0 0.00 0.00 0.00 59 1014.3
20260904183248 96 190 3.0 3.0 0.00 0.00 0.00 55 1014.2
20260904182743 95 204 0.0 1.0 0.00 0.00 0.00 56 1014.1
20260904182238 94 231 3.0 3.0 0.00 0.00 0.00 57 1014.1
20260904181734 96 229 1.0 1.0 0.00 0.00 0.00 57 1014.3
20260904181234 95 228 1.0 1.0 0.00 0.00 0.00 56 1014.2
20260904180729 95 244 3.0 3.0 0.00 0.00 0.00 56 1014.5
20260904180224 95 290 2.0 2.0 0.00 0.00 0.00 55 1014.3
20260904175723 94 271 5.0 6.0 0.00 0.00 0.00 57 1014.5
20260904175222 94 243 1.0 2.0 0.00 0.00 0.00 58 1014.6
20260904174717 95 220 5.0 6.0 0.00 0.00 0.00 57 1014.6
20260904174213 95 255 3.0 3.0 0.00 0.00 0.00 58 1014.6
20260904173709 94 223 1.0 1.0 0.00 0.00 0.00 59 1014.6
20260904173203 94 253 1.0 1.0 0.00 0.00 0.00 60 1014.6
20260904172700 94 222 2.0 2.0 0.00 0.00 0.00 57 1015.0
20260904172159 93 274 2.0 2.0 0.00 0.00 0.00 60 1014.8
20260904171654 93 267 3.0 5.0 0.00 0.00 0.00 60 1014.9
20260904171149 93 258 5.0 8.0 0.00 0.00 0.00 57 1014.9
20260904170645 94 252 5.0 8.0 0.00 0.00 0.00 59 1014.6
20260904170141 93 204 2.0 3.0 0.00 0.00 0.00 59 1014.7
20260904165639 94 251 3.0 3.0 0.00 0.00 0.00 59 1014.7
20260904165133 93 261 3.0 3.0 0.00 0.00 0.00 62 1014.6
20260904164634 94 260 4.0 5.0 0.00 0.00 0.00 59 1014.9
20260904164129 93 186 1.0 1.0 0.00 0.00 0.00 61 1014.7
20260904163624 92 246 5.0 7.0 0.00 0.00 0.00 62 1014.9
20260904163119 92 268 2.0 2.0 0.00 0.00 0.00 62 1014.7
20260904162614 92 223 5.0 6.0 0.00 0.00 0.00 61 1015.0
20260904162109 92 241 5.0 6.0 0.00 0.00 0.00 61 1015.0
20260904161604 91 236 2.0 2.0 0.00 0.00 0.00 62 1014.9
20260904161059 92 258 2.0 3.0 0.00 0.00 0.00 62 1014.9
20260904160555 92 245 3.0 3.0 0.00 0.00 0.00 65 1014.7
20260904160050 92 185 2.0 2.0 0.00 0.00 0.00 63 1014.8
20260904155550 91 239 2.0 2.0 0.00 0.00 0.00 63 1014.9
20260904155044 91 264 2.0 2.0 0.00 0.00 0.00 64 1014.9
20260904154538 91 214 3.0 5.0 0.00 0.00 0.00 63 1014.5
20260904154033 90 249 3.0 5.0 0.00 0.00 0.00 66 1014.6
20260904153532 91 238 3.0 5.0 0.00 0.00 0.00 63 1014.7
20260904153029 90 264 3.0 5.0 0.00 0.00 0.00 65 1014.7
20260904152524 90 304 2.0 2.0 0.00 0.00 0.00 66 1014.6
20260904152020 89 259 3.0 3.0 0.00 0.00 0.00 66 1014.6
20260904151514 89 266 2.0 2.0 0.00 0.00 0.00 66 1014.6
20260904151009 90 259 1.0 2.0 0.00 0.00 0.00 67 1014.8
20260904150509 90 209 1.0 1.0 0.00 0.00 0.00 68 1014.7
20260904150004 89 215 1.0 2.0 0.00 0.00 0.00 68 1014.6
20260904145458 88 225 1.0 1.0 0.00 0.00 0.00 69 1014.5
20260904144953 88 230 1.0 2.0 0.00 0.00 0.00 70 1014.7
20260904144449 87 239 2.0 2.0 0.00 0.00 0.00 70 1014.4
20260904143944 86 268 4.0 6.0 0.00 0.00 0.00 71 1014.4
20260904143440 86 232 2.0 2.0 0.00 0.00 0.00 71 1014.4
20260904142937 86 217 1.0 2.0 0.00 0.00 0.00 72 1014.2
20260904142433 86 236 2.0 2.0 0.00 0.00 0.00 72 1014.0
20260904141926 84 228 1.0 2.0 0.00 0.00 0.00 73 1014.2
20260904141416 84 250 2.0 2.0 0.00 0.00 0.00 76 1014.0
20260904140912 84 225 2.0 3.0 0.00 0.00 0.00 76 1014.0
20260904140407 83 216 1.0 2.0 0.00 0.00 0.00 76 1014.0
20260904135906 82 255 2.0 2.0 0.00 0.00 0.00 78 1014.0
20260904135401 82 237 4.0 5.0 0.00 0.00 0.00 78 1014.0
20260904134857 82 202 3.0 5.0 0.00 0.00 0.00 78 1014.1
20260904134356 81 271 3.0 8.0 0.00 0.00 0.00 79 1014.2
20260904133851 81 244 3.0 3.0 0.00 0.00 0.00 79 1014.0
20260904133347 81 226 3.0 3.0 0.00 0.00 0.00 80 1014.0
20260904132847 80 234 1.0 1.0 0.00 0.00 0.00 82 1014.1
20260904132341 80 242 5.0 7.0 0.00 0.00 0.00 82 1014.3
20260904131836 80 215 3.0 3.0 0.00 0.00 0.00 82 1014.0
20260904131331 79 219 2.0 2.0 0.00 0.00 0.00 83 1014.1
20260904130826 78 251 4.0 6.0 0.00 0.00 0.00 84 1014.2
20260904130325 78 219 3.0 3.0 0.00 0.00 0.00 85 1014.1
20260904125821 78 234 3.0 5.0 0.00 0.00 0.00 86 1013.9
20260904125317 78 223 3.0 3.0 0.00 0.00 0.00 86 1014.0
20260904124816 77 232 2.0 3.0 0.00 0.00 0.00 87 1013.7
20260904124313 77 237 2.0 2.0 0.00 0.00 0.00 87 1013.7
20260904123808 77 240 2.0 2.0 0.00 0.00 0.00 87 1014.0
20260904123302 77 226 1.0 1.0 0.00 0.00 0.00 88 1013.8
20260904122757 76 243 1.0 2.0 0.00 0.00 0.00 88 1013.6
20260904122256 76 222 1.0 1.0 0.00 0.00 0.00 89 1013.7
20260904121752 75 224 1.0 2.0 0.00 0.00 0.00 89 1013.7
20260904121248 75 211 1.0 1.0 0.00 0.00 0.00 90 1013.8
20260904120744 75 216 1.0 1.0 0.00 0.00 0.00 90 1013.6
20260904120240 75 224 1.0 1.0 0.00 0.00 0.00 91 1013.5
20260904115735 75 213 1.0 1.0 0.00 0.00 0.00 91 1013.6
20260904115230 75 215 2.0 3.0 0.00 0.00 0.00 91 1013.7
20260904114725 75 213 1.0 1.0 0.00 0.00 0.00 91 1013.4
20260904114225 75 210 1.0 1.0 0.00 0.00 0.00 91 1013.6
20260904113720 75 204 1.0 2.0 0.00 0.00 0.00 91 1013.4
20260904113218 75 212 0.0 1.0 0.00 0.00 0.00 91 1013.5
20260904112714 75 195 2.0 2.0 0.00 0.00 0.00 92 1013.2
20260904112209 74 215 1.0 1.0 0.00 0.00 0.00 93 1013.2
20260904111705 74 203 1.0 1.0 0.00 0.00 0.00 93 1013.1
20260904111201 74 209 0.0 0.0 0.00 0.00 0.00 93 1013.1
20260904110656 74 198 0.0 0.0 0.00 0.00 0.00 93 1013.3
20260904110155 75 194 0.0 0.0 0.00 0.00 0.00 92 1013.1
20260904105650 75 210 1.0 1.0 0.00 0.00 0.00 91 1013.0
20260904105145 75 214 1.0 1.0 0.00 0.00 0.00 90 1012.9
20260904104641 75 221 0.0 0.0 0.00 0.00 0.00 91 1012.7
20260904104136 75 231 0.0 0.0 0.00 0.00 0.00 91 1012.9
20260904103632 75 220 0.0 1.0 0.00 0.00 0.00 91 1013.1
20260904103127 75 206 1.0 1.0 0.00 0.00 0.00 90 1012.9
20260904102624 75 219 1.0 1.0 0.00 0.00 0.00 90 1012.8